Location: Vihti�l�
(61.3833°N, 23.0667°E)
Time: 05:08:24
(UTC+00:00)

Cosmos 1515 - Pass Details

Date: 29 November 2020
Orbit: 504 x 516 km, 82.5° (Epoch: 22 January)

Event Time Altitude Azimuth Distance (km) Brightness Sun altitude
Exits shadow 05:58:16 - 339° (NNW) 2,221 6.4 -7.5°
Reaches altitude 10° 05:59:26 10° 335° (NNW) 1,759 5.9 -7.4°
Maximum altitude 06:03:02 39° 266° (W) 785 4.2 -7.0°
Drops below altitude 10° 06:06:37 10° 196° (SSW) 1,740 6.6 -6.7°
Sets 06:08:48 0° 189° (S) 2,620 7.6 -6.4°
